Location: Grums
(59.3529°N, 13.1129°E)
Time: 12:36:40
(UTC+01:00)

SEEDS - Visible Passes

Search period start: 29 November 2022 00:00
Search period end: 09 December 2022 00:00
Orbit: 577 x 595 km, 97.6° (Epoch: 28 November)

Date Brightness Start Highest point End Pass type
(mag) Time Alt. Az. Time Alt. Az. Time Alt. Az.
29 Nov ? 03:55:53 10° NNE 03:56:43 15° NNE 03:56:43 15° NNE visible
29 Nov ? 05:31:27 10° N 05:33:11 22° N 05:33:11 22° N visible
29 Nov ? 07:09:07 10° NNW 07:09:38 10° NW 07:09:38 10° NW visible
29 Nov ? 16:32:06 10° SW 16:34:52 17° W 16:37:37 10° NW visible
30 Nov ? 04:02:44 10° NNE 04:03:34 15° NNE 04:03:34 15° NNE visible
30 Nov ? 05:38:23 10° N 05:40:02 21° N 05:40:02 21° N visible
30 Nov ? 16:39:23 10° WSW 16:41:50 15° W 16:44:18 10° NW visible
01 Dec ? 04:09:35 10° NNE 04:10:25 15° NNE 04:10:25 15° NNE visible
01 Dec ? 05:45:20 10° N 05:46:52 19° NNW 05:46:52 19° NNW visible
01 Dec ? 16:46:45 10° WSW 16:48:49 13° W 16:50:55 10° NW visible
02 Dec ? 04:16:27 10° NNE 04:17:15 15° NNE 04:17:15 15° NNE visible
02 Dec ? 05:52:18 10° N 05:53:43 18° NNW 05:53:43 18° NNW visible
02 Dec ? 16:54:13 10° WSW 16:55:48 12° W 16:57:24 10° WNW visible
03 Dec ? 04:23:19 10° NNE 04:24:06 15° NNE 04:24:06 15° NNE visible
03 Dec ? 05:59:14 10° N 06:00:33 17° NNW 06:00:33 17° NNW visible
03 Dec ? 17:02:02 10° W 17:02:48 10° W 17:03:33 10° WNW visible
04 Dec ? 04:30:11 10° NNE 04:30:56 15° NNE 04:30:56 15° NNE visible
04 Dec ? 06:06:12 10° N 06:07:24 16° NNW 06:07:24 16° NNW visible
05 Dec ? 04:37:03 10° NNE 04:37:47 15° NNE 04:37:47 15° NNE visible
05 Dec ? 06:13:09 10° N 06:14:14 15° NNW 06:14:14 15° NNW visible
06 Dec ? 04:43:55 10° NNE 04:44:38 15° NNE 04:44:38 15° NNE visible
06 Dec ? 06:20:07 10° N 06:21:05 14° NNW 06:21:05 14° NNW visible
07 Dec ? 04:50:48 10° NNE 04:51:28 14° NNE 04:51:28 14° NNE visible
07 Dec ? 06:27:05 10° N 06:27:56 13° NNW 06:27:56 13° NNW visible
08 Dec ? 04:57:40 10° NNE 04:58:18 14° N 04:58:18 14° N visible
08 Dec ? 06:34:05 10° N 06:34:46 12° NNW 06:34:46 12° NNW visible
08 Dec ? 15:57:13 10° SSW 16:00:53 30° W 16:04:35 10° NNW visible
